Flag for Russia Weather past 2 weeks in Saratov, Russia

Now
79 °F

Sunny.


Feels Like: 78 °F
Forecast: 64 / 80 °F
Wind: 13 mph from Northwest

Location: Saratov / Tsentralny

Current Time: Jul 23, 2014 at 2:47:23 PM

Latest Report: Jul 23, 2014 at 2:00 PM


Visibility: 10 mi

Pressure: 29.95 "Hg

Humidity: 28%

Dew point: 43 °F

Location of SaratovLocation

Historic Weather in Saratov — Graph

°F

Saratov temperature yesterday

Maximum temperature yesterday: 77 °F (at 4:00 PM)
Minimum temperature yesterday: 54 °F (at 5:00 AM)
Average temperature yesterday: 67 °F

Past Weeks' High & Low Weather Summary

 TemperatureHumidityPressure
High91 °F (Jul 16, 3:00 PM)94% (Jul 12, 6:00 AM)30.21 "Hg (Jul 12, 6:00 AM)
Low54 °F (Jul 22, 5:00 AM)22% (Jul 22, 6:00 PM)29.77 "Hg (Jul 9, 6:00 PM)
Average72 °F49%29.97 "Hg
* Reported Jul 8 1:00 PM — Jul 23 1:30 PM, Saratov, Weather by CustomWeather, © 2014

Note: Actual official high and low records may vary slightly from our data, if they occured in-between our weather recording intervals... More about our weather records

Advertising

Saratov weather history for previous 24 hours

 ConditionsComfort  
Time TempWeatherWind HumidityBarometerVisibility
1:30 PM
Jul 23
79 °FSunny.15 mph30%29.95 "Hg10 mi
1:00 PM79 °FSunny.10 mph30%29.95 "Hg10 mi
12:00 PM75 °FSunny.10 mph34%29.98 "Hg10 mi
10:00 AM73 °FSunny.15 mph33%29.98 "Hg10 mi
9:30 AM68 °FSunny.10 mph46%29.98 "Hg10 mi
9:00 AM68 °FSunny.10 mph46%29.98 "Hg10 mi
8:30 AM64 °FSunny.10 mph52%29.98 "Hg10 mi
8:00 AM64 °FSunny.10 mph52%29.98 "Hg10 mi
7:30 AM64 °FSunny.10 mph49%29.98 "Hg10 mi
7:00 AM64 °FSunny.10 mph49%29.98 "Hg10 mi
6:30 AM61 °FSunny.8 mph55%29.95 "Hg10 mi
6:00 AM61 °FClear.8 mph55%29.95 "Hg10 mi
5:30 AM61 °FClear.8 mph55%29.95 "Hg10 mi
5:00 AM61 °FClear.8 mph55%29.95 "Hg10 mi
4:30 AM63 °FClear.8 mph52%29.95 "Hg10 mi
4:00 AM63 °FClear.8 mph52%29.95 "Hg10 mi
9:00 PM
Jul 22
70 °FSunny.8 mph38%29.92 "Hg10 mi
8:30 PM75 °FSunny.8 mph27%29.92 "Hg10 mi
8:00 PM75 °FSunny.10 mph27%29.92 "Hg10 mi
7:30 PM75 °FSunny.10 mph27%29.92 "Hg10 mi
7:00 PM75 °FSunny.10 mph27%29.92 "Hg10 mi
6:30 PM77 °FSunny.10 mph22%29.92 "Hg10 mi
6:00 PM77 °FSunny.13 mph22%29.92 "Hg10 mi
5:30 PM77 °FSunny.10 mph24%29.92 "Hg10 mi
5:00 PM77 °FSunny.10 mph24%29.92 "Hg10 mi
4:30 PM77 °FSunny.8 mph26%29.92 "Hg10 mi
4:00 PM77 °FSunny.8 mph26%29.92 "Hg10 mi
3:30 PM75 °FSunny.8 mph27%29.95 "Hg10 mi
3:00 PM75 °FSunny.6 mph27%29.95 "Hg10 mi
2:30 PM73 °FSunny.6 mph31%29.95 "Hg10 mi
2:00 PM73 °FSunny.8 mph31%29.95 "Hg10 mi
Weather by CustomWeather, © 2014

See weather overviewHow to use our weather pages